Location: STAR School
(35.3054°N, 111.2976°W)
Time: 18:05:15
(UTC-07:00)

deb Explorer IX - Pass Details

Date: 29 May 2019
Orbit: 537 x 1115 km, 38.8° (Epoch: 14 June)

Event Time Altitude Azimuth Distance (km) Brightness Sun altitude
Exits shadow 03:32:11 14° 291° (WNW) 1,557 ? -17.5°
Maximum altitude 03:35:37 69° 13° (NNE) 575 ? -17.0°
Drops below altitude 10° 03:39:46 10° 98° (E) 1,846 ? -16.4°
Sets 03:42:07 0° 101° (E) 2,796 ? -16.0°
